Location: Akkrum
(53.0502°N, 5.8309°E)
Time: 07:27:28
(UTC+00:00)

Daily predictions for brighter satellites

Satellite Brightness Start Highest point End
(mag) Time Altitude Azimuth Time Altitude Azimuth Time Altitude Azimuth
Cosmos 2322 Rocket 2.7 20:46:57 10° SW 20:52:39 69° NW 20:58:22 10° NNE
SL-16 R/B 3.1 20:47:10 10° SW 20:52:45 57° NW 20:58:23 10° NNE
Cosmos 1802 Rocket 4.1 20:47:34 10° N 20:53:53 89° W 21:00:15 10° S
SPOT 5 3.0 20:49:21 10° SSE 20:54:23 75° ENE 20:59:11 10° NNW
Cosmos 1459 Rocket 4.2 20:49:16 10° NNW 20:55:19 74° W 21:01:21 10° S
Cosmos 1975 Rocket 3.5 20:51:49 10° SSW 20:56:09 67° WNW 21:00:35 10° N
Meteor 1-24 Rocket 4.5 20:52:32 10° SSE 20:57:21 34° E 21:02:18 10° NNE
Cosmos 1302 Rocket 4.4 20:54:25 10° S 20:59:23 44° ESE 21:04:20 10° NE
Cosmos 1300 2.8 20:58:16 10° N 21:02:05 67° ENE 21:05:53 10° SSE
Resurs 01 Rocket 3.6 21:03:43 10° SSW 21:07:20 25° W 21:11:00 10° NW
USA 267 3.7 21:05:36 10° E 21:12:06 68° N 21:18:36 10° WNW
Cosmos 1340 2.6 21:09:01 10° S 21:12:45 71° E 21:16:32 10° NNE
Cosmos 2278 Rocket 2.5 21:09:24 10° NNW 21:15:03 63° NE 21:20:41 10° SE
Cosmos 1844 Rocket 4.1 21:10:45 10° NW 21:15:45 33° WSW 21:20:44 10° SSW
Cosmos 2322 3.8 21:10:34 10° SSW 21:16:08 62° ESE 21:21:44 10° NE
COSMOS 2428 3.1 21:12:26 10° S 21:17:54 47° ESE 21:23:24 10° NE
Cosmos 389 Rocket 3.0 21:17:50 10° N 21:21:09 44° ENE 21:24:17 11° SE
Cosmos 1726 Rocket 4.5 21:18:37 10° N 21:22:49 37° ENE 21:26:53 10° SE
Cosmos 1867 3.7 21:18:04 10° NW 21:23:34 73° SW 21:28:54 11° SSE
SL-23 DEB 4.4 21:23:51 10° W 21:27:45 70° S 21:34:23 10° ESE
Cosmos 968 Rocket 3.6 21:23:20 10° NNW 21:28:27 72° WSW 21:33:29 10° SSE
Cosmos 1486 Rocket 4.0 21:28:43 10° NNW 21:33:58 83° WSW 21:38:52 12° SSE
SJ 16-02 3.5 21:32:14 10° N 21:35:19 18° NE 21:38:23 10° E
Cosmos 1626 3.3 21:32:15 10° SSW 21:35:47 42° WNW 21:39:20 10° N
FALCON 9 DEB 3.0 21:34:10 10° WSW 21:37:36 78° SSE 21:41:01 10° E
Meteor 2-10 Rocket 3.5 21:32:46 10° NNW 21:37:53 83° ENE 21:42:36 12° SSE
Cosmos 1606 Rocket 3.8 21:34:06 10° N 21:38:34 63° ENE 21:42:32 13° SSE
Cosmos 2123 Rocket 4.2 21:32:18 10° SSW 21:38:37 79° WNW 21:45:00 10° N
Cosmos 2233 Rocket 4.0 21:33:12 10° NNW 21:39:23 85° W 21:45:34 10° S
Cosmos 1943 Rocket 3.7 21:35:39 10° NNW 21:40:27 29° NE 21:45:15 10° E
Uosat 12 SS-18 rocket 4.4 21:37:58 10° SSW 21:42:17 52° SE 21:47:20 10° NE
Cosmos 1992 Rocket 4.4 21:38:17 10° S 21:43:13 45° ESE 21:48:12 10° NE
ARIANE 5 R/B 4.1 21:39:55 10° SSW 21:43:55 32° W 21:47:59 10° NNW
Cosmos 1354 Rocket 4.2 21:44:52 10° NNW 21:50:15 74° ENE 21:55:00 13° SSE
ATLAS CENTAUR R/B 3.5 21:47:30 10° WNW 21:50:38 20° WSW 21:53:54 10° SSW
Cosmos 1346 Rocket 2.9 21:47:03 11° S 21:50:46 60° E 21:54:45 10° NNE
BREEZE-M DEB (TANK) 4.2 21:47:39 10° SW 21:56:01 27° SSE 21:59:22 10° ESE
Cosmos 1980 4.3 21:51:14 11° S 21:56:16 39° ESE 22:01:33 10° NE
ATLAS 3B R/B 2.7 21:51:38 10° SW 21:58:14 89° SE 22:05:07 10° NE
Lacrosse 4 Rocket 4.4 21:57:26 10° N 21:59:04 12° NNE 22:00:43 10° NE
SL-4 R/B 2.9 21:56:47 10° SSW 22:00:09 25° SSE 22:03:20 10° E
ALOS 2 3.8 21:57:54 10° SE 22:01:43 33° ENE 22:05:39 10° N
FALCON 9 DEB 3.0 21:58:53 10° SW 22:01:56 50° SSE 22:04:59 10° E
Cosmos 1607 4.1 22:01:05 10° NW 22:07:29 69° SW 22:12:53 14° SSE
Cosmos 2219 Rocket 2.5 22:02:17 10° SW 22:07:58 73° NW 22:13:41 10° NNE
Meteor 2-5 Rocket 4.2 22:02:56 10° SSW 22:08:26 63° WNW 22:14:04 10° N
Lacrosse 5 rocket 1.3 22:05:46 10° WSW 22:09:23 68° NNW 22:12:57 10° ENE
Cosmos 2333 Rocket 2.7 22:03:57 10° SW 22:09:40 64° NW 22:15:23 10° NNE
Cosmos 2228 3.5 22:05:57 10° NNW 22:10:17 57° W 22:14:06 13° S
Cosmos 1703 4.4 22:08:43 16° SE 22:11:14 30° E 22:14:43 10° NNE
Iridium 2 3.7 22:12:19 16° S 22:15:10 70° E 22:18:55 10° N
FALCON 9 DEB 2.7 22:14:21 10° WSW 22:17:26 68° SSE 22:20:31 10° E
Meteor 2-1 Rocket 4.3 22:12:10 10° N 22:17:42 73° ENE 22:22:14 16° SSE
USA 215 3.9 22:12:55 10° ENE 22:18:47 34° SE 22:24:37 10° SSW
Terra 3.4 22:20:49 10° SSW 22:24:52 27° W 22:28:58 10° NW
FALCON 9 DEB 2.7 22:22:23 10° WSW 22:25:29 66° SSE 22:28:36 10° E
COBE Rocket 4.1 22:22:10 16° SSE 22:26:09 66° ENE 22:31:01 10° N
Cosmos 1455 2.4 22:23:27 10° NNW 22:27:16 67° W 22:29:59 18° S
SL-16 R/B 3.4 22:23:55 15° SSE 22:27:16 25° ESE 22:31:49 10° NE
FALCON 9 DEB 2.7 22:24:54 10° WSW 22:28:00 73° SSE 22:31:07 10° E
Cosmos 2237 Rocket 2.3 22:23:44 11° SSW 22:29:02 61° ESE 22:34:37 10° NE
Cosmos 1464 Rocket 4.1 22:22:45 10° N 22:29:11 87° E 22:34:26 16° S
H-2A R/B 4.5 22:27:38 10° N 22:31:33 44° WNW 22:35:26 10° SW
Cosmos 1184 Rocket 2.8 22:29:49 21° S 22:31:50 64° E 22:35:04 10° NNE
Cosmos 2360 Rocket 4.2 22:28:08 10° W 22:33:03 30° NW 22:37:58 10° NNE
Cosmos 2369 Rocket 3.5 22:29:22 10° NNW 22:34:41 37° NE 22:39:58 10° ESE
CENTAUR R/B 4.5 22:29:45 10° WNW 22:36:08 39° N 22:43:36 10° ENE
Cosmos 192 4.4 22:33:47 15° S 22:37:45 61° ESE 22:42:37 10° NNE
GEOS 3 Rocket 3.8 22:38:08 16° SSE 22:42:24 62° SW 22:47:42 10° NW
ATLAS CENTAUR R/B 4.0 22:40:45 14° S 22:45:15 45° ESE 22:57:43 10° ENE
USA 32 4.5 22:44:16 10° N 22:49:26 54° ENE 22:53:23 17° SSE
Aureole 3 4.5 22:46:27 10° N 22:49:56 36° ENE 22:53:19 15° SE
USA 267 3.2 22:48:34 10° ESE 22:55:07 76° SSW 23:01:42 10° WNW
Cosmos 1812 Rocket 3.9 22:51:59 10° N 22:56:18 57° ENE 22:59:22 18° SSE
Okean 1-7 Rocket 3.6 22:54:15 18° S 22:57:30 87° ESE 23:01:58 10° NNE
Cosmos 2278 Rocket 3.5 22:53:59 10° NW 22:58:48 29° WSW 23:02:45 14° SSW
BREEZE-M DEB (TANK) 2.9 22:56:26 10° WSW 22:59:49 62° S 23:09:30 10° E
GENESIS II 4.4 22:56:05 10° SW 22:59:59 75° NW 23:03:55 10° NE
Cosmos 2058 Rocket 3.8 22:57:03 10° NNW 23:01:17 44° W 23:04:24 17° SSW
Cosmos 2297 3.7 22:56:02 10° NNW 23:01:43 85° WSW 23:06:11 17° SSE
COSMOS 2428 3.9 22:56:50 10° WSW 23:02:17 43° NW 23:07:47 10° NNE
Cosmos 2034 Rocket 4.1 22:59:07 10° NNW 23:05:19 75° W 23:10:01 18° S
Thor Agena Rocket 4.5 23:01:32 10° NNE 23:06:23 36° E 23:09:46 18° SSE
SAR-Lupe-2 4.3 23:04:17 10° NNE 23:07:43 40° E 23:09:33 22° SSE
NOSS 0 Rocket 4.3 23:03:59 10° SW 23:10:11 67° NW 23:16:27 10° NNE
FALCON 9 DEB 3.0 23:11:04 10° W 23:14:29 85° S 23:17:54 10° E
SJ 16-02 1.3 23:10:06 10° NNW 23:14:31 84° WSW 23:17:27 21° SSE
Meteor 1-21 Rocket 4.5 23:14:30 14° SSW 23:19:21 68° WNW 23:25:08 10° N
Meteor 1-27 4.4 23:17:18 10° N 23:22:53 68° ENE 23:27:14 17° SSE
GP-B 3.3 23:18:39 10° N 23:23:06 66° E 23:26:01 21° SSE
Meteor 1-11 4.3 23:19:57 19° S 23:23:57 65° E 23:29:29 10° NNE
Cosmos 1943 Rocket 2.1 23:19:14 10° NW 23:24:45 74° WSW 23:28:52 18° SSE
Meteor 1-4 Rocket 3.1 23:21:28 10° NNW 23:24:48 43° W 23:26:36 22° SSW
MTI 3.5 23:27:55 10° NNE 23:30:59 83° ESE 23:32:27 28° S
Cosmos 1892 3.8 23:30:16 18° SE 23:32:30 33° E 23:36:02 10° NNE
Cosmos 1441 Rocket 4.2 23:29:44 14° SW 23:32:42 41° WNW 23:36:20 10° N
Cosmos 1437 Rocket 4.5 23:30:26 10° N 23:33:46 26° ENE 23:37:03 10° SE
Cosmos 1869 3.8 23:31:14 10° N 23:35:18 56° ENE 23:38:08 18° SSE
CZ-2D R/B 4.5 23:34:15 10° ENE 23:35:40 11° E 23:37:04 10° E
FALCON 9 DEB 2.8 23:34:25 10° W 23:37:34 88° NNW 23:40:43 10° E
ALOS 2 3.5 23:35:17 18° SSW 23:38:00 36° W 23:42:06 10° NNW
Cosmos 990 Rocket 4.1 23:33:15 10° NNW 23:38:29 77° ENE 23:42:50 15° SSE
Tsikada Rocket 4.0 23:34:13 18° SSW 23:39:02 83° W 23:45:15 10° N
Lacrosse 4 Rocket 3.4 23:35:30 10° NNW 23:39:07 28° NE 23:42:40 10° E
SL-4 R/B 1.7 23:35:26 10° WSW 23:39:20 60° SSE 23:42:57 10° E
USA 229 DEB 4.2 23:38:46 19° S 23:43:03 42° ESE 23:49:26 10° NE
USA 229 4.2 23:38:53 19° S 23:43:10 42° ESE 23:49:32 10° NE
Lacrosse 5 rocket 2.3 23:45:21 10° WNW 23:48:48 43° N 23:52:16 10° ENE
ATLAS 3B R/B 4.0 23:43:22 10° W 23:49:39 41° NNW 23:56:12 10° NE
NOSS 3-1 (C) 3.4 23:46:44 17° SSW 23:50:58 62° SE 23:57:22 10° NE
Cosmos 1626 Rocket 4.3 23:49:24 16° SW 23:52:46 46° WNW 23:57:04 10° N
FALCON 9 DEB 2.7 23:49:55 10° W 23:53:01 89° SSW 23:56:07 10° E
Cosmos 1953 Rocket 4.3 23:50:42 18° SSE 23:53:33 44° E 23:57:46 10° NNE
Cosmos 1937 Rocket 3.9 23:48:23 10° NNW 23:53:43 64° ENE 23:58:59 10° SE
Cosmos 1408 3.2 23:53:09 21° SSE 23:55:15 46° E 23:58:50 10° NNE
